Powrót do katalogu

PRAETORIAN SDA_508

AktywnyMilitariaPO
NORAD 100066·PAYLOAD·🇺🇸 United States

Wystrzelony Jul 16, 2026 z Vandenberg Space Force Base

Loading…

Następne Przeloty (najbliższe 24 godziny)

TLE

ŚwieżeSource: Space-Track

Epoka: Sep 14, 2026, 01:01 UTC

1 A0066U 26163H   26257.04304360  .00000179  00000-0  14574-3 0  9993
2 A0066  81.4755 255.8413 0014601  57.0623 303.1937 13.85528093  8207

Śledź PRAETORIAN SDA_508 w czasie rzeczywistym z AllMySat

Download on the App Store